GW5186 Weather Reports


time (UTC)temp
C
wind
direction
speed
KPH
gust
KPH
rain 1hr
cm
rain 24hr
cm
rain mn
cm
humidity
%
barometer
mb
20260505140438 32 128 0.0 9.7 0.00 0.00 0.00 61 1018.3
20260505124852 29 129 3.2 6.4 0.00 0.00 0.00 72 1017.9
20260505124349 29 155 4.8 12.9 0.00 0.00 0.00 74 1018.0
20260505123845 28 199 3.2 4.8 0.00 0.00 0.00 75 1018.0
20260505123342 29 183 3.2 4.8 0.00 0.00 0.00 74 1018.0
20260505122837 29 196 3.2 9.7 0.00 0.00 0.00 75 1018.0
20260505122335 28 45 1.6 6.4 0.00 0.00 0.00 76 1017.9
20260505121832 28 146 3.2 6.4 0.00 0.00 0.00 76 1017.9
20260505121329 28 166 3.2 9.7 0.00 0.00 0.00 76 1017.8
20260505120825 28 180 3.2 6.4 0.00 0.00 0.00 77 1017.8
20260505120321 28 173 3.2 6.4 0.00 0.00 0.00 77 1017.9
20260505115819 28 172 1.6 4.8 0.00 0.00 0.00 78 1017.7
20260505115317 28 213 1.6 6.4 0.00 0.00 0.00 78 1017.5
20260505114815 27 190 1.6 3.2 0.00 0.00 0.00 79 1017.6
20260505114311 27 218 0.0 4.8 0.00 0.00 0.00 79 1017.5
20260505113808 27 222 0.0 6.4 0.00 0.00 0.00 81 1017.4
20260505113304 27 171 1.6 1.6 0.00 0.00 0.00 82 1017.4
20260505112800 27 249 1.6 4.8 0.00 0.00 0.00 83 1017.4
20260505112258 26 200 1.6 3.2 0.00 0.00 0.00 83 1017.6
20260505111758 26 198 1.6 3.2 0.00 0.00 0.00 84 1017.5
20260505111254 26 208 0.0 1.6 0.00 0.00 0.00 86 1017.5
20260505110750 26 192 0.0 3.2 0.00 0.00 0.00 88 1017.3
20260505110248 25 215 0.0 3.2 0.00 0.00 0.00 89 1017.3
20260505101722 23 232 0.0 0.0 0.00 0.00 0.00 90 1016.9
20260505101217 23 232 0.0 0.0 0.00 0.00 0.00 90 1016.8
20260505100714 23 232 0.0 0.0 0.00 0.00 0.00 90 1016.9
20260505100211 23 233 0.0 0.0 0.00 0.00 0.00 90 1016.7
20260505095706 23 233 0.0 0.0 0.00 0.00 0.00 90 1016.6
20260505095205 23 224 0.0 0.0 0.00 0.00 0.00 90 1016.6
20260505094700 23 220 0.0 0.0 0.00 0.00 0.00 89 1016.5
20260505094157 23 218 0.0 0.0 0.00 0.00 0.00 89 1016.5
20260505093653 23 216 0.0 0.0 0.00 0.00 0.00 89 1016.4
20260505093151 23 224 0.0 0.0 0.00 0.00 0.00 89 1016.6
20260505092647 23 226 0.0 0.0 0.00 0.00 0.00 89 1016.5
20260505092146 23 215 0.0 0.0 0.00 0.00 0.00 89 1016.5
20260505091643 23 227 0.0 0.0 0.00 0.00 0.00 89 1016.6
20260505091141 23 231 0.0 0.0 0.00 0.00 0.00 89 1016.5
20260505090638 23 217 0.0 0.0 0.00 0.00 0.00 89 1016.4
20260505090136 23 212 0.0 0.0 0.00 0.00 0.00 89 1016.4
20260505085633 23 240 0.0 0.0 0.00 0.00 0.00 89 1016.4
20260505085131 23 231 0.0 0.0 0.00 0.00 0.00 89 1016.3
20260505084629 23 216 0.0 0.0 0.00 0.00 0.00 89 1016.3
20260505084127 23 228 0.0 0.0 0.00 0.00 0.00 89 1016.1
20260505083624 23 241 0.0 0.0 0.00 0.00 0.00 89 1016.3
20260505083121 23 241 0.0 0.0 0.00 0.00 0.00 89 1016.3
20260505082617 23 241 0.0 0.0 0.00 0.00 0.00 89 1016.2
20260505082114 23 241 0.0 0.0 0.00 0.00 0.00 89 1016.1
20260505081610 23 241 0.0 0.0 0.00 0.00 0.00 89 1016.3
20260505081108 23 242 0.0 0.0 0.00 0.00 0.00 89 1016.2
20260505080603 23 243 0.0 0.0 0.00 0.00 0.00 89 1016.4
20260505080100 23 245 0.0 0.0 0.00 0.00 0.00 89 1016.4
20260505075556 23 240 0.0 0.0 0.00 0.00 0.00 89 1016.3
20260505075053 23 240 0.0 0.0 0.00 0.00 0.00 89 1016.3
20260505074550 23 240 0.0 0.0 0.00 0.00 0.00 89 1016.5
20260505074047 23 240 0.0 0.0 0.00 0.00 0.00 89 1016.3
20260505073544 23 240 0.0 0.0 0.00 0.00 0.00 89 1016.1
20260505073043 23 240 0.0 0.0 0.00 0.00 0.00 89 1016.1
20260505072538 23 239 0.0 0.0 0.00 0.00 0.00 88 1016.1
20260505072035 23 239 0.0 0.0 0.00 0.00 0.00 88 1016.0
20260505071535 23 239 0.0 0.0 0.00 0.00 0.00 88 1016.3
20260505071034 23 239 0.0 0.0 0.00 0.00 0.00 88 1016.1
20260505070531 23 239 0.0 0.0 0.00 0.00 0.00 88 1016.1
20260505070027 23 240 0.0 0.0 0.00 0.00 0.00 88 1016.0
20260505065523 24 240 0.0 0.0 0.00 0.00 0.00 87 1016.1
20260505065020 24 240 0.0 0.0 0.00 0.00 0.00 87 1016.3
20260505064517 24 241 0.0 0.0 0.00 0.00 0.00 87 1016.3
20260505064015 24 241 0.0 0.0 0.00 0.00 0.00 87 1016.5
20260505063512 24 241 0.0 0.0 0.00 0.00 0.00 87 1016.4
20260505063008 24 241 0.0 0.0 0.00 0.00 0.00 87 1016.4
20260505062505 24 241 0.0 0.0 0.00 0.00 0.00 86 1016.3
20260505062002 24 241 0.0 0.0 0.00 0.00 0.00 86 1016.6
20260505061500 24 241 0.0 0.0 0.00 0.00 0.00 86 1016.5
20260505060957 24 241 0.0 0.0 0.00 0.00 0.00 86 1016.4
20260505060454 24 241 0.0 0.0 0.00 0.00 0.00 86 1016.7
20260505055950 25 241 0.0 0.0 0.00 0.00 0.00 85 1016.5
20260505055446 25 233 0.0 0.0 0.00 0.00 0.00 85 1016.6
20260505054943 25 236 0.0 0.0 0.00 0.00 0.00 85 1016.7
20260505054441 25 234 0.0 0.0 0.00 0.00 0.00 85 1016.6
20260505053938 25 233 0.0 0.0 0.00 0.00 0.00 85 1016.8
20260505053435 25 231 0.0 0.0 0.00 0.00 0.00 85 1016.9
20260505052932 25 231 0.0 0.0 0.00 0.00 0.00 85 1016.8
20260505052429 25 231 0.0 0.0 0.00 0.00 0.00 84 1016.9
20260505051926 25 231 0.0 0.0 0.00 0.00 0.00 84 1016.8
20260505051423 25 233 0.0 0.0 0.00 0.00 0.00 84 1017.0
20260505050921 25 213 0.0 0.0 0.00 0.00 0.00 84 1017.0
20260505050419 25 212 0.0 0.0 0.00 0.00 0.00 84 1017.2
20260505041347 25 230 1.6 1.6 0.00 0.00 0.00 83 1017.6
20260505040844 26 205 0.0 0.0 0.00 0.00 0.00 83 1017.4
20260505040342 26 234 0.0 0.0 0.00 0.00 0.00 83 1017.5
20260505035838 26 226 0.0 0.0 0.00 0.00 0.00 83 1017.6
20260505035334 26 227 0.0 1.6 0.00 0.00 0.00 82 1017.6
20260505034832 26 219 0.0 3.2 0.00 0.00 0.00 82 1017.7
20260505034328 26 200 0.0 0.0 0.00 0.00 0.00 82 1017.7
20260505033825 26 221 0.0 1.6 0.00 0.00 0.00 81 1018.0
20260505033322 26 228 0.0 3.2 0.00 0.00 0.00 81 1017.7
20260505032820 26 218 0.0 1.6 0.00 0.00 0.00 81 1017.9
20260505032316 26 227 0.0 0.0 0.00 0.00 0.00 81 1017.8
20260505031814 26 214 0.0 0.0 0.00 0.00 0.00 80 1018.1
20260505031309 26 189 0.0 1.6 0.00 0.00 0.00 80 1017.8
20260505030807 26 234 1.6 3.2 0.00 0.00 0.00 80 1017.9
20260505030303 26 222 0.0 1.6 0.00 0.00 0.00 80 1017.9
20260505025758 26 233 0.0 0.0 0.00 0.00 0.00 80 1018.0
20260505025256 26 219 0.0 0.0 0.00 0.00 0.00 80 1018.0
20260505024754 26 215 0.0 0.0 0.00 0.00 0.00 80 1017.8
20260505024252 26 216 0.0 0.0 0.00 0.00 0.00 79 1017.9
20260505023749 26 213 0.0 1.6 0.00 0.00 0.00 79 1017.6
20260505023246 26 241 0.0 0.0 0.00 0.00 0.00 79 1017.9
20260505022743 26 238 0.0 0.0 0.00 0.00 0.00 79 1017.8
20260505022240 26 243 0.0 1.6 0.00 0.00 0.00 78 1017.8
20260505021737 26 234 0.0 0.0 0.00 0.00 0.00 78 1017.8
20260505021234 27 217 0.0 0.0 0.00 0.00 0.00 78 1017.7
20260505020729 27 228 0.0 0.0 0.00 0.00 0.00 78 1017.7
20260505020225 27 224 0.0 0.0 0.00 0.00 0.00 78 1017.6
20260505015723 27 238 0.0 0.0 0.00 0.00 0.00 77 1017.6
20260505015219 27 231 0.0 4.8 0.00 0.00 0.00 77 1017.5
20260505014716 27 237 0.0 1.6 0.00 0.00 0.00 77 1017.4
20260505014214 27 243 0.0 0.0 0.00 0.00 0.00 77 1017.5
20260505013710 27 248 1.6 3.2 0.00 0.00 0.00 77 1017.5
20260505013207 27 251 0.0 1.6 0.00 0.00 0.00 77 1017.4
20260505012706 27 254 0.0 0.0 0.00 0.00 0.00 77 1017.2
20260505012203 27 230 0.0 0.0 0.00 0.00 0.00 77 1017.2
20260505011658 27 244 0.0 0.0 0.00 0.00 0.00 76 1017.3
20260505011155 27 245 0.0 0.0 0.00 0.00 0.00 76 1016.8
20260505010650 27 206 0.0 3.2 0.00 0.00 0.00 76 1017.1
20260505010148 27 152 0.0 0.0 0.00 0.00 0.00 76 1016.9
20260505005644 27 264 1.6 4.8 0.00 0.00 0.00 75 1016.9
20260505005141 27 247 0.0 0.0 0.00 0.00 0.00 75 1016.9
20260505004638 27 238 0.0 0.0 0.00 0.00 0.00 75 1016.8
20260505004134 27 226 0.0 0.0 0.00 0.00 0.00 74 1016.7
20260505003632 27 215 0.0 0.0 0.00 0.00 0.00 74 1016.8
20260505003129 28 188 0.0 3.2 0.00 0.00 0.00 74 1016.6
20260505002625 28 244 0.0 1.6 0.00 0.00 0.00 73 1016.8
20260505002124 28 210 1.6 1.6 0.00 0.00 0.00 73 1016.7
20260505001620 28 215 1.6 4.8 0.00 0.00 0.00 72 1016.5
20260505001118 28 236 1.6 4.8 0.00 0.00 0.00 72 1016.5
20260505000615 28 224 0.0 3.2 0.00 0.00 0.00 72 1016.5
20260505000113 28 217 0.0 3.2 0.00 0.00 0.00 72 1016.5
20260504235609 28 197 0.0 4.8 0.00 0.00 0.00 72 1016.5
20260504235106 28 145 1.6 3.2 0.00 0.00 0.00 71 1016.2
20260504234603 28 214 1.6 3.2 0.00 0.00 0.00 72 1016.4
20260504234100 28 191 0.0 6.4 0.00 0.00 0.00 72 1016.3
20260504233555 28 245 0.0 4.8 0.00 0.00 0.00 71 1016.2
20260504233052 28 265 0.0 4.8 0.00 0.00 0.00 71 1016.3
20260504232549 28 211 0.0 6.4 0.00 0.00 0.00 71 1016.2
20260504232047 29 226 0.0 4.8 0.00 0.00 0.00 70 1016.3
20260504231543 29 168 3.2 4.8 0.00 0.00 0.00 70 1016.2
20260504231039 29 112 3.2 4.8 0.00 0.00 0.00 68 1016.2
20260504230535 29 177 1.6 4.8 0.00 0.00 0.00 68 1016.1
20260504230035 30 179 1.6 4.8 0.00 0.00 0.00 67 1015.9
20260504225531 30 214 0.0 3.2 0.00 0.00 0.00 67 1015.9
20260504225028 30 216 1.6 4.8 0.00 0.00 0.00 67 1015.7
20260504224525 30 248 0.0 3.2 0.00 0.00 0.00 66 1015.5
20260504224022 30 249 0.0 9.7 0.00 0.00 0.00 66 1015.7
20260504223519 30 115 3.2 6.4 0.00 0.00 0.00 65 1015.6
20260504223015 30 169 1.6 4.8 0.00 0.00 0.00 65 1015.4
20260504222512 30 88 3.2 6.4 0.00 0.00 0.00 65 1015.3
20260504222009 30 152 3.2 4.8 0.00 0.00 0.00 64 1015.3
20260504221506 30 242 0.0 1.6 0.00 0.00 0.00 64 1015.4
20260504221003 30 277 3.2 3.2 0.00 0.00 0.00 64 1015.1
20260504220459 30 191 3.2 6.4 0.00 0.00 0.00 63 1015.1
20260504215956 30 112 1.6 11.3 0.00 0.00 0.00 63 1015.1
20260504215453 31 195 0.0 3.2 0.00 0.00 0.00 62 1014.9
20260504214950 31 330 4.8 11.3 0.00 0.00 0.00 61 1015.0
20260504214446 31 182 1.6 4.8 0.00 0.00 0.00 60 1014.8
20260504213943 31 87 6.4 9.7 0.00 0.00 0.00 62 1014.8
20260504213439 31 198 3.2 4.8 0.00 0.00 0.00 62 1014.7
20260504212937 31 102 4.8 12.9 0.00 0.00 0.00 61 1014.5
20260504212432 31 190 0.0 1.6 0.00 0.00 0.00 61 1014.6
20260504211930 32 97 6.4 11.3 0.00 0.00 0.00 59 1014.3
20260504211426 32 228 3.2 11.3 0.00 0.00 0.00 58 1014.5
20260504210924 33 86 4.8 9.7 0.00 0.00 0.00 57 1014.6
20260504210421 32 196 1.6 3.2 0.00 0.00 0.00 58 1014.4
20260504205918 32 103 3.2 9.7 0.00 0.00 0.00 58 1014.4
20260504205415 33 248 3.2 12.9 0.00 0.00 0.00 57 1014.5
20260504204913 33 60 6.4 11.3 0.00 0.00 0.00 55 1014.4
20260504204411 33 187 1.6 6.4 0.00 0.00 0.00 57 1014.2
20260504203911 33 79 6.4 11.3 0.00 0.00 0.00 55 1014.4
20260504203407 33 183 3.2 9.7 0.00 0.00 0.00 56 1014.3
20260504202903 33 190 1.6 9.7 0.00 0.00 0.00 57 1014.3
20260504202400 32 174 1.6 4.8 0.00 0.00 0.00 64 1014.2
20260504201856 32 185 3.2 6.4 0.00 0.00 0.00 68 1014.1
20260504201354 32 256 4.8 11.3 0.00 0.00 0.00 66 1014.2
20260504200851 33 90 3.2 20.9 0.00 0.00 0.00 62 1014.4
20260504200348 33 214 1.6 4.8 0.00 0.00 0.00 55 1014.1
20260504195844 33 195 1.6 11.3 0.00 0.00 0.00 56 1014.2
20260504195340 34 283 4.8 12.9 0.00 0.00 0.00 53 1014.2
20260504194837 33 101 3.2 6.4 0.00 0.00 0.00 53 1014.3
20260504194333 33 123 4.8 11.3 0.00 0.00 0.00 54 1014.4
20260504193829 33 151 4.8 6.4 0.00 0.00 0.00 54 1014.5
20260504193327 32 213 3.2 6.4 0.00 0.00 0.00 57 1014.5
20260504192825 31 52 4.8 9.7 0.00 0.00 0.00 68 1014.2
20260504192323 31 144 3.2 9.7 0.00 0.00 0.00 68 1014.4
20260504191821 31 103 4.8 9.7 0.00 0.00 0.00 68 1014.4
20260504191318 32 123 6.4 12.9 0.00 0.00 0.00 67 1014.7
20260504190814 32 78 6.4 9.7 0.00 0.00 0.00 67 1014.6
20260504190310 32 162 6.4 11.3 0.00 0.00 0.00 66 1014.4
20260504185806 32 230 4.8 11.3 0.00 0.00 0.00 68 1014.6
20260504185304 32 143 3.2 12.9 0.00 0.00 0.00 67 1014.7
20260504184800 31 247 3.2 12.9 0.00 0.00 0.00 68 1014.7
20260504184255 32 53 9.7 14.5 0.00 0.00 0.00 66 1014.7
20260504183751 31 72 3.2 12.9 0.00 0.00 0.00 68 1014.9
20260504183248 32 47 4.8 17.7 0.00 0.00 0.00 67 1015.2
20260504182747 32 212 3.2 11.3 0.00 0.00 0.00 67 1015.2
20260504182243 32 138 6.4 14.5 0.00 0.00 0.00 68 1014.9
20260504181741 31 114 6.4 11.3 0.00 0.00 0.00 67 1015.2
20260504181238 32 93 6.4 12.9 0.00 0.00 0.00 68 1015.2
20260504180737 32 108 8.0 14.5 0.00 0.00 0.00 67 1015.4
20260504180236 32 182 1.6 11.3 0.00 0.00 0.00 67 1015.2
20260504175733 31 168 3.2 12.9 0.00 0.00 0.00 69 1015.3
20260504175229 31 82 3.2 14.5 0.00 0.00 0.00 68 1015.3
20260504174727 31 277 6.4 16.1 0.00 0.00 0.00 69 1015.5
20260504174225 31 212 6.4 17.7 0.00 0.00 0.00 68 1015.3
20260504173721 32 191 3.2 22.5 0.00 0.00 0.00 68 1015.5
20260504173218 32 110 8.0 11.3 0.00 0.00 0.00 66 1015.6
20260504172715 32 105 6.4 17.7 0.00 0.00 0.00 57 1015.8
20260504172211 31 208 3.2 12.9 0.00 0.00 0.00 67 1015.6
20260504171708 31 121 3.2 12.9 0.00 0.00 0.00 69 1015.8
20260504171205 32 41 4.8 16.1 0.00 0.00 0.00 67 1016.0
20260504170701 31 176 6.4 14.5 0.00 0.00 0.00 66 1016.0
20260504170159 32 126 4.8 12.9 0.00 0.00 0.00 66 1016.1
20260504160118 33 153 3.2 4.8 0.00 0.00 0.00 49 1017.1
20260504151045 32 181 1.6 12.9 0.00 0.00 0.00 58 1017.1
20260504150543 32 121 6.4 14.5 0.00 0.00 0.00 56 1017.2